Time,TemperatureF,DewpointF,PressureIn,WindDirection,WindDirectionDegrees,WindSpeedMPH,WindSpeedGustMPH,Humidity,HourlyPrecipIn,Conditions,Clouds,dailyrainin,SoftwareType,DateUTC
2013-02-19 00:00:00,39.5,23.8,30.21,South,179,5.0,-999.0,53,0.00,,,0.00,Wunderground v.1.15,2013-02-19 05:00:00,
2013-02-19 00:01:00,39.6,23.9,30.20,SSW,207,5.0,-999.0,53,0.00,,,0.00,Wunderground v.1.15,2013-02-19 05:01:00,
2013-02-19 00:02:00,39.5,23.8,30.20,SSW,211,5.0,-999.0,53,0.00,,,0.00,Wunderground v.1.15,2013-02-19 05:02:00,
2013-02-19 00:06:00,39.5,23.8,30.21,SW,236,5.0,-999.0,53,0.00,,,0.00,Wunderground v.1.15,2013-02-19 05:06:00,
2013-02-19 00:11:00,39.4,23.7,30.21,South,178,5.0,-999.0,53,0.00,,,0.00,Wunderground v.1.15,2013-02-19 05:11:00,
2013-02-19 00:17:00,39.5,23.8,30.22,WSW,245,5.0,-999.0,53,0.00,,,0.00,Wunderground v.1.15,2013-02-19 05:17:00,
2013-02-19 00:23:00,39.4,24.1,30.22,SW,220,5.0,-999.0,54,0.00,,,0.00,Wunderground v.1.15,2013-02-19 05:23:00,
2013-02-19 00:29:00,39.2,23.9,30.22,South,170,4.0,-999.0,54,0.00,,,0.00,Wunderground v.1.15,2013-02-19 05:29:00,
2013-02-19 00:35:00,39.1,23.8,30.22,WSW,241,4.0,-999.0,54,0.00,,,0.00,Wunderground v.1.15,2013-02-19 05:35:00,
2013-02-19 00:41:00,39.0,24.2,30.22,WNW,285,4.0,-999.0,55,0.00,,,0.00,Wunderground v.1.15,2013-02-19 05:41:00,
2013-02-19 00:47:00,38.8,24.0,30.22,SSW,206,3.0,-999.0,55,0.00,,,0.00,Wunderground v.1.15,2013-02-19 05:47:00,
2013-02-19 00:53:00,38.7,23.9,30.21,SW,222,3.0,-999.0,55,0.00,,,0.00,Wunderground v.1.15,2013-02-19 05:53:00,
2013-02-19 00:58:00,38.5,24.1,30.22,SSE,153,2.0,-999.0,56,0.00,,,0.00,Wunderground v.1.15,2013-02-19 05:58:00,
2013-02-19 01:04:00,38.4,24.5,30.21,South,188,2.0,-999.0,57,0.00,,,0.00,Wunderground v.1.15,2013-02-19 06:04:00,
2013-02-19 01:10:00,38.3,24.4,30.21,SSW,206,2.0,-999.0,57,0.00,,,0.00,Wunderground v.1.15,2013-02-19 06:10:00,
2013-02-19 01:15:00,38.3,24.0,30.21,SW,236,3.0,-999.0,56,0.00,,,0.00,Wunderground v.1.15,2013-02-19 06:15:00,
2013-02-19 01:21:00,38.2,24.3,30.20,SSW,198,4.0,-999.0,57,0.00,,,0.00,Wunderground v.1.15,2013-02-19 06:21:00,
2013-02-19 01:27:00,38.0,24.1,30.19,SSW,192,4.0,-999.0,57,0.00,,,0.00,Wunderground v.1.15,2013-02-19 06:27:00,
2013-02-19 01:33:00,37.8,24.3,30.19,SSW,205,3.0,-999.0,58,0.00,,,0.00,Wunderground v.1.15,2013-02-19 06:33:00,
2013-02-19 01:38:00,37.7,24.2,30.19,SW,227,3.0,-999.0,58,0.00,,,0.00,Wunderground v.1.15,2013-02-19 06:38:00,
2013-02-19 01:44:00,37.8,24.3,30.19,South,175,4.0,-999.0,58,0.00,,,0.00,Wunderground v.1.15,2013-02-19 06:44:00,
2013-02-19 01:50:00,37.8,24.3,30.20,WSW,246,4.0,-999.0,58,0.00,,,0.00,Wunderground v.1.15,2013-02-19 06:50:00,
2013-02-19 01:56:00,37.7,24.2,30.19,SW,231,4.0,-999.0,58,0.00,,,0.00,Wunderground v.1.15,2013-02-19 06:56:00,
2013-02-19 02:02:00,37.5,24.1,30.19,SSW,205,4.0,-999.0,58,0.00,,,0.00,Wunderground v.1.15,2013-02-19 07:02:00,
2013-02-19 02:08:00,37.4,24.4,30.19,WSW,252,4.0,-999.0,59,0.00,,,0.00,Wunderground v.1.15,2013-02-19 07:08:00,
2013-02-19 02:14:00,37.4,24.4,30.18,SW,225,3.0,-999.0,59,0.00,,,0.00,Wunderground v.1.15,2013-02-19 07:14:00,
2013-02-19 02:20:00,37.4,24.4,30.18,SSW,207,3.0,-999.0,59,0.00,,,0.00,Wunderground v.1.15,2013-02-19 07:20:00,
2013-02-19 02:25:00,37.5,24.5,30.17,SSW,204,4.0,-999.0,59,0.00,,,0.00,Wunderground v.1.15,2013-02-19 07:25:00,
2013-02-19 02:31:00,37.5,24.1,30.16,SW,230,5.0,-999.0,58,0.00,,,0.00,Wunderground v.1.15,2013-02-19 07:31:00,
2013-02-19 02:37:00,37.4,24.0,30.16,SSW,207,5.0,-999.0,58,0.00,,,0.00,Wunderground v.1.15,2013-02-19 07:37:00,
2013-02-19 02:43:00,37.5,24.1,30.16,SSW,200,5.0,-999.0,58,0.00,,,0.00,Wunderground v.1.15,2013-02-19 07:43:00,
2013-02-19 02:48:00,37.4,24.0,30.15,SW,225,4.0,-999.0,58,0.00,,,0.00,Wunderground v.1.15,2013-02-19 07:48:00,
2013-02-19 02:54:00,37.3,23.9,30.15,South,184,4.0,-999.0,58,0.00,,,0.00,Wunderground v.1.15,2013-02-19 07:54:00,
2013-02-19 03:00:00,37.1,23.7,30.14,SSE,160,3.0,-999.0,58,0.00,,,0.00,Wunderground v.1.15,2013-02-19 08:00:00,
2013-02-19 03:06:00,37.0,24.0,30.13,SSW,205,3.0,-999.0,59,0.00,,,0.00,Wunderground v.1.15,2013-02-19 08:06:00,
2013-02-19 03:12:00,37.1,23.7,30.13,SW,217,3.0,-999.0,58,0.00,,,0.00,Wunderground v.1.15,2013-02-19 08:12:00,
2013-02-19 03:18:00,37.0,24.0,30.13,SSW,205,3.0,-999.0,59,0.00,,,0.00,Wunderground v.1.15,2013-02-19 08:18:00,
2013-02-19 03:24:00,36.9,23.5,30.13,SW,225,3.0,-999.0,58,0.00,,,0.00,Wunderground v.1.15,2013-02-19 08:24:00,
2013-02-19 03:29:00,36.8,23.8,30.13,WSW,246,3.0,-999.0,59,0.00,,,0.00,Wunderground v.1.15,2013-02-19 08:29:00,
2013-02-19 03:35:00,36.8,23.4,30.11,SW,225,4.0,-999.0,58,0.00,,,0.00,Wunderground v.1.15,2013-02-19 08:35:00,
2013-02-19 03:41:00,36.6,23.2,30.11,SW,220,4.0,-999.0,58,0.00,,,0.00,Wunderground v.1.15,2013-02-19 08:41:00,
2013-02-19 03:47:00,36.8,23.4,30.12,South,188,3.0,-999.0,58,0.00,,,0.00,Wunderground v.1.15,2013-02-19 08:47:00,
2013-02-19 03:52:00,36.6,23.2,30.12,WSW,257,3.0,-999.0,58,0.00,,,0.00,Wunderground v.1.15,2013-02-19 08:52:00,
2013-02-19 03:58:00,36.6,23.2,30.12,SSW,200,3.0,-999.0,58,0.00,,,0.00,Wunderground v.1.15,2013-02-19 08:58:00,
2013-02-19 04:04:00,36.7,23.7,30.13,WSW,254,5.0,-999.0,59,0.00,,,0.00,Wunderground v.1.15,2013-02-19 09:04:00,
2013-02-19 04:10:00,36.5,23.5,30.12,SSE,165,5.0,-999.0,59,0.00,,,0.00,Wunderground v.1.15,2013-02-19 09:10:00,
2013-02-19 04:16:00,36.2,23.6,30.11,South,179,3.0,-999.0,60,0.00,,,0.00,Wunderground v.1.15,2013-02-19 09:16:00,
2013-02-19 04:22:00,36.2,23.6,30.10,WNW,302,3.0,-999.0,60,0.00,,,0.00,Wunderground v.1.15,2013-02-19 09:22:00,
2013-02-19 04:28:00,36.1,23.5,30.10,SW,236,3.0,-999.0,60,0.00,,,0.00,Wunderground v.1.15,2013-02-19 09:28:00,
2013-02-19 04:34:00,36.1,23.9,30.09,SSW,194,3.0,-999.0,61,0.00,,,0.00,Wunderground v.1.15,2013-02-19 09:34:00,
2013-02-19 04:39:00,36.1,23.9,30.09,WSW,242,3.0,-999.0,61,0.00,,,0.00,Wunderground v.1.15,2013-02-19 09:39:00,
2013-02-19 04:45:00,36.2,23.6,30.10,South,188,4.0,-999.0,60,0.00,,,0.00,Wunderground v.1.15,2013-02-19 09:45:00,
2013-02-19 04:51:00,36.2,24.0,30.10,SW,234,4.0,-999.0,61,0.00,,,0.00,Wunderground v.1.15,2013-02-19 09:51:00,
2013-02-19 04:56:00,36.2,24.0,30.10,WSW,253,4.0,-999.0,61,0.00,,,0.00,Wunderground v.1.15,2013-02-19 09:56:00,
2013-02-19 05:02:00,36.2,24.0,30.10,WSW,252,4.0,-999.0,61,0.00,,,0.00,Wunderground v.1.15,2013-02-19 10:02:00,
2013-02-19 05:08:00,36.2,24.0,30.10,WSW,246,4.0,-999.0,61,0.00,,,0.00,Wunderground v.1.15,2013-02-19 10:08:00,
2013-02-19 05:14:00,36.2,24.0,30.11,WSW,244,4.0,-999.0,61,0.00,,,0.00,Wunderground v.1.15,2013-02-19 10:14:00,
2013-02-19 05:20:00,36.2,24.0,30.10,WSW,257,3.0,-999.0,61,0.00,,,0.00,Wunderground v.1.15,2013-02-19 10:20:00,
2013-02-19 05:26:00,36.2,24.4,30.10,SSW,209,3.0,-999.0,62,0.00,,,0.00,Wunderground v.1.15,2013-02-19 10:26:00,
2013-02-19 05:32:00,36.1,24.3,30.10,WSW,246,3.0,-999.0,62,0.00,,,0.00,Wunderground v.1.15,2013-02-19 10:32:00,
2013-02-19 05:38:00,36.2,24.4,30.09,SSW,205,3.0,-999.0,62,0.00,,,0.00,Wunderground v.1.15,2013-02-19 10:38:00,
2013-02-19 05:43:00,36.3,24.5,30.09,WSW,255,3.0,-999.0,62,0.00,,,0.00,Wunderground v.1.15,2013-02-19 10:43:00,
2013-02-19 05:49:00,36.4,24.6,30.10,SSW,205,3.0,-999.0,62,0.00,,,0.00,Wunderground v.1.15,2013-02-19 10:49:00,
2013-02-19 05:55:00,36.5,24.7,30.09,West,259,2.0,-999.0,62,0.00,,,0.00,Wunderground v.1.15,2013-02-19 10:55:00,
2013-02-19 06:01:00,36.6,24.8,30.09,South,179,2.0,-999.0,62,0.00,,,0.00,Wunderground v.1.15,2013-02-19 11:01:00,
2013-02-19 06:07:00,36.7,24.9,30.09,South,183,3.0,-999.0,62,0.00,,,0.00,Wunderground v.1.15,2013-02-19 11:07:00,
2013-02-19 06:13:00,36.8,25.0,30.09,SSE,168,3.0,-999.0,62,0.00,,,0.00,Wunderground v.1.15,2013-02-19 11:13:00,
2013-02-19 06:19:00,36.9,25.5,30.09,West,266,3.0,-999.0,63,0.00,,,0.00,Wunderground v.1.15,2013-02-19 11:19:00,
2013-02-19 06:24:00,37.1,25.7,30.09,West,264,3.0,-999.0,63,0.00,,,0.00,Wunderground v.1.15,2013-02-19 11:24:00,
2013-02-19 06:30:00,37.2,25.8,30.09,West,271,2.0,-999.0,63,0.00,,,0.00,Wunderground v.1.15,2013-02-19 11:30:00,
2013-02-19 06:36:00,37.2,25.8,30.09,West,267,3.0,-999.0,63,0.00,,,0.00,Wunderground v.1.15,2013-02-19 11:36:00,
2013-02-19 06:42:00,37.2,25.8,30.09,West,277,3.0,-999.0,63,0.00,,,0.00,Wunderground v.1.15,2013-02-19 11:42:00,
2013-02-19 06:47:00,37.2,25.8,30.09,SW,234,2.0,-999.0,63,0.00,,,0.00,Wunderground v.1.15,2013-02-19 11:47:00,
2013-02-19 06:53:00,37.2,26.1,30.08,SSW,202,1.0,-999.0,64,0.00,,,0.00,Wunderground v.1.15,2013-02-19 11:53:00,
2013-02-19 06:59:00,37.2,26.1,30.08,WSW,250,2.0,-999.0,64,0.00,,,0.00,Wunderground v.1.15,2013-02-19 11:59:00,
2013-02-19 07:05:00,37.2,26.1,30.08,West,265,2.0,-999.0,64,0.00,,,0.00,Wunderground v.1.15,2013-02-19 12:05:00,
2013-02-19 07:11:00,37.3,26.2,30.08,WSW,247,2.0,-999.0,64,0.00,,,0.00,Wunderground v.1.15,2013-02-19 12:11:00,
2013-02-19 07:17:00,37.3,26.6,30.08,WSW,253,1.0,-999.0,65,0.00,,,0.00,Wunderground v.1.15,2013-02-19 12:17:00,
2013-02-19 07:23:00,37.4,26.7,30.08,West,273,1.0,-999.0,65,0.00,,,0.00,Wunderground v.1.15,2013-02-19 12:23:00,
2013-02-19 07:28:00,37.4,26.3,30.08,WNW,302,1.0,-999.0,64,0.00,,,0.00,Wunderground v.1.15,2013-02-19 12:28:00,
2013-02-19 07:34:00,37.4,26.7,30.08,SW,224,2.0,-999.0,65,0.00,,,0.00,Wunderground v.1.15,2013-02-19 12:34:00,
2013-02-19 07:40:00,37.6,26.9,30.08,West,269,1.0,-999.0,65,0.00,,,0.00,Wunderground v.1.15,2013-02-19 12:40:00,
2013-02-19 07:46:00,37.8,27.1,30.08,West,270,1.0,-999.0,65,0.00,,,0.00,Wunderground v.1.15,2013-02-19 12:46:00,
2013-02-19 07:51:00,37.8,27.1,30.08,WSW,250,1.0,-999.0,65,0.00,,,0.00,Wunderground v.1.15,2013-02-19 12:51:00,
2013-02-19 07:57:00,37.9,27.2,30.07,SSW,201,1.0,-999.0,65,0.00,,,0.00,Wunderground v.1.15,2013-02-19 12:57:00,
2013-02-19 08:03:00,38.0,27.6,30.07,SSW,195,1.0,-999.0,66,0.00,,,0.00,Wunderground v.1.15,2013-02-19 13:03:00,
2013-02-19 08:09:00,38.1,27.7,30.08,South,190,1.0,-999.0,66,0.00,,,0.00,Wunderground v.1.15,2013-02-19 13:09:00,
2013-02-19 08:15:00,38.2,28.9,30.08,West,269,1.0,-999.0,69,0.00,,,0.00,Wunderground v.1.15,2013-02-19 13:15:00,
2013-02-19 08:21:00,38.0,29.8,30.08,WSW,257,2.0,-999.0,72,0.00,,,0.00,Wunderground v.1.15,2013-02-19 13:21:00,
2013-02-19 08:27:00,37.7,30.5,30.09,West,265,3.0,-999.0,75,0.00,,,0.01,Wunderground v.1.15,2013-02-19 13:27:00,
2013-02-19 08:32:00,37.2,30.7,30.08,NW,324,3.0,-999.0,77,0.00,,,0.01,Wunderground v.1.15,2013-02-19 13:32:00,
2013-02-19 08:38:00,36.8,30.9,30.09,WSW,250,3.0,-999.0,79,0.06,,,0.02,Wunderground v.1.15,2013-02-19 13:38:00,
2013-02-19 08:44:00,36.6,31.6,30.09,SW,216,3.0,-999.0,82,0.13,,,0.03,Wunderground v.1.15,2013-02-19 13:44:00,
2013-02-19 08:50:00,36.4,31.7,30.08,West,263,2.0,-999.0,83,0.12,,,0.04,Wunderground v.1.15,2013-02-19 13:50:00,
2013-02-19 08:55:00,36.2,31.8,30.08,SW,217,2.0,-999.0,84,0.13,,,0.05,Wunderground v.1.15,2013-02-19 13:55:00,
2013-02-19 09:01:00,36.1,32.3,30.07,SW,215,1.0,-999.0,86,0.08,,,0.06,Wunderground v.1.15,2013-02-19 14:01:00,
2013-02-19 09:07:00,36.1,32.6,30.07,South,186,1.0,-999.0,87,0.13,,,0.07,Wunderground v.1.15,2013-02-19 14:07:00,
2013-02-19 09:13:00,36.0,32.5,30.06,South,175,1.0,-999.0,87,0.25,,,0.09,Wunderground v.1.15,2013-02-19 14:13:00,
2013-02-19 09:19:00,35.9,33.0,30.06,WSW,244,1.0,-999.0,89,0.23,,,0.12,Wunderground v.1.15,2013-02-19 14:19:00,
2013-02-19 09:25:00,35.9,33.0,30.05,SW,225,2.0,-999.0,89,0.10,,,0.13,Wunderground v.1.15,2013-02-19 14:25:00,
2013-02-19 09:31:00,35.9,33.0,30.05,SW,234,2.0,-999.0,89,0.10,,,0.13,Wunderground v.1.15,2013-02-19 14:31:00,
2013-02-19 09:36:00,36.1,33.2,30.04,South,178,2.0,-999.0,89,0.08,,,0.14,Wunderground v.1.15,2013-02-19 14:36:00,
2013-02-19 09:42:00,36.2,33.5,30.04,SSW,204,2.0,-999.0,90,0.12,,,0.15,Wunderground v.1.15,2013-02-19 14:42:00,
2013-02-19 09:48:00,36.3,33.9,30.03,SW,217,2.0,-999.0,91,0.06,,,0.16,Wunderground v.1.15,2013-02-19 14:48:00,
2013-02-19 09:54:00,36.6,34.2,30.03,WNW,285,3.0,-999.0,91,0.06,,,0.16,Wunderground v.1.15,2013-02-19 14:54:00,
2013-02-19 09:59:00,36.8,34.4,30.03,SW,230,2.0,-999.0,91,0.06,,,0.17,Wunderground v.1.15,2013-02-19 14:59:00,
2013-02-19 10:05:00,36.8,34.4,30.03,SW,236,3.0,-999.0,91,0.06,,,0.17,Wunderground v.1.15,2013-02-19 15:05:00,
2013-02-19 10:11:00,36.9,34.5,30.03,South,182,2.0,-999.0,91,0.04,,,0.17,Wunderground v.1.15,2013-02-19 15:11:00,
2013-02-19 10:17:00,36.8,34.4,30.03,South,179,2.0,-999.0,91,0.00,,,0.17,Wunderground v.1.15,2013-02-19 15:17:00,
2013-02-19 10:23:00,37.0,34.9,30.02,South,187,3.0,-999.0,92,0.00,,,0.17,Wunderground v.1.15,2013-02-19 15:23:00,
2013-02-19 10:29:00,37.0,34.9,30.02,WSW,240,2.0,-999.0,92,0.00,,,0.17,Wunderground v.1.15,2013-02-19 15:29:00,
2013-02-19 10:35:00,37.2,35.1,30.02,WSW,237,2.0,-999.0,92,0.00,,,0.18,Wunderground v.1.15,2013-02-19 15:35:00,
2013-02-19 10:40:00,37.3,35.2,30.01,SSW,192,2.0,-999.0,92,0.00,,,0.18,Wunderground v.1.15,2013-02-19 15:40:00,
2013-02-19 10:46:00,37.5,35.4,30.01,WSW,244,2.0,-999.0,92,0.04,,,0.19,Wunderground v.1.15,2013-02-19 15:46:00,
2013-02-19 10:52:00,37.5,35.4,30.01,SSW,196,3.0,-999.0,92,0.04,,,0.19,Wunderground v.1.15,2013-02-19 15:52:00,
2013-02-19 10:58:00,37.6,35.5,30.01,WSW,240,3.0,-999.0,92,0.04,,,0.19,Wunderground v.1.15,2013-02-19 15:58:00,
2013-02-19 11:03:00,37.7,35.9,30.00,SSW,204,3.0,-999.0,93,0.00,,,0.19,Wunderground v.1.15,2013-02-19 16:03:00,
2013-02-19 11:09:00,37.8,36.0,30.00,SSW,200,3.0,-999.0,93,0.00,,,0.19,Wunderground v.1.15,2013-02-19 16:09:00,
2013-02-19 11:15:00,37.9,36.1,30.00,SSW,202,2.0,-999.0,93,0.00,,,0.19,Wunderground v.1.15,2013-02-19 16:15:00,
2013-02-19 11:21:00,38.0,36.2,29.99,SSW,197,2.0,-999.0,93,0.00,,,0.19,Wunderground v.1.15,2013-02-19 16:21:00,
2013-02-19 11:27:00,38.1,36.3,29.99,SSE,155,2.0,-999.0,93,0.00,,,0.19,Wunderground v.1.15,2013-02-19 16:27:00,
2013-02-19 11:33:00,38.2,36.4,29.99,SW,221,3.0,-999.0,93,0.00,,,0.19,Wunderground v.1.15,2013-02-19 16:33:00,
2013-02-19 11:39:00,38.4,36.6,29.98,SW,234,2.0,-999.0,93,0.00,,,0.19,Wunderground v.1.15,2013-02-19 16:39:00,
2013-02-19 11:45:00,38.4,36.8,29.98,SSW,202,2.0,-999.0,94,0.11,,,0.20,Wunderground v.1.15,2013-02-19 16:45:00,
2013-02-19 11:50:00,38.4,36.8,29.98,WSW,256,2.0,-999.0,94,0.11,,,0.21,Wunderground v.1.15,2013-02-19 16:50:00,
2013-02-19 11:56:00,38.5,36.9,29.97,South,189,3.0,-999.0,94,0.05,,,0.21,Wunderground v.1.15,2013-02-19 16:56:00,
2013-02-19 12:02:00,38.7,37.1,29.97,SSW,206,2.0,-999.0,94,0.00,,,0.21,Wunderground v.1.15,2013-02-19 17:02:00,
2013-02-19 12:08:00,38.9,37.3,29.96,South,188,3.0,-999.0,94,0.00,,,0.22,Wunderground v.1.15,2013-02-19 17:08:00,
2013-02-19 12:14:00,39.2,37.9,29.96,SSW,206,2.0,-999.0,95,0.00,,,0.22,Wunderground v.1.15,2013-02-19 17:14:00,
2013-02-19 12:20:00,39.5,37.9,29.96,SSW,211,2.0,-999.0,94,0.00,,,0.22,Wunderground v.1.15,2013-02-19 17:20:00,
2013-02-19 12:26:00,39.8,38.2,29.95,West,264,3.0,-999.0,94,0.00,,,0.22,Wunderground v.1.15,2013-02-19 17:26:00,
2013-02-19 12:31:00,40.1,38.5,29.95,WSW,246,3.0,-999.0,94,0.00,,,0.22,Wunderground v.1.15,2013-02-19 17:31:00,
2013-02-19 12:37:00,40.4,38.8,29.94,South,184,2.0,-999.0,94,0.00,,,0.22,Wunderground v.1.15,2013-02-19 17:37:00,
2013-02-19 12:43:00,40.9,39.3,29.93,WSW,244,4.0,-999.0,94,0.00,,,0.22,Wunderground v.1.15,2013-02-19 17:43:00,
2013-02-19 12:49:00,41.4,39.8,29.93,WSW,248,5.0,-999.0,94,0.00,,,0.22,Wunderground v.1.15,2013-02-19 17:49:00,
2013-02-19 12:54:00,41.5,39.6,29.92,WSW,254,5.0,-999.0,93,0.00,,,0.22,Wunderground v.1.15,2013-02-19 17:54:00,
2013-02-19 13:00:00,41.7,39.8,29.92,SSW,199,4.0,-999.0,93,0.00,,,0.22,Wunderground v.1.15,2013-02-19 18:00:00,
2013-02-19 13:06:00,42.0,40.1,29.91,NW,304,5.0,-999.0,93,0.00,,,0.22,Wunderground v.1.15,2013-02-19 18:06:00,
2013-02-19 13:12:00,42.1,40.2,29.91,SW,223,5.0,-999.0,93,0.00,,,0.22,Wunderground v.1.15,2013-02-19 18:12:00,
2013-02-19 13:18:00,42.3,40.4,29.91,WSW,251,5.0,-999.0,93,0.00,,,0.22,Wunderground v.1.15,2013-02-19 18:18:00,
2013-02-19 13:24:00,42.4,40.5,29.90,WSW,239,5.0,-999.0,93,0.00,,,0.22,Wunderground v.1.15,2013-02-19 18:24:00,
2013-02-19 13:30:00,42.6,40.7,29.90,WSW,257,4.0,-999.0,93,0.00,,,0.22,Wunderground v.1.15,2013-02-19 18:30:00,
2013-02-19 13:35:00,42.7,40.5,29.89,West,260,5.0,-999.0,92,0.00,,,0.22,Wunderground v.1.15,2013-02-19 18:35:00,
2013-02-19 13:41:00,42.8,40.6,29.89,West,281,5.0,-999.0,92,0.00,,,0.22,Wunderground v.1.15,2013-02-19 18:41:00,
2013-02-19 13:47:00,42.9,40.7,29.90,SW,224,6.0,-999.0,92,0.00,,,0.22,Wunderground v.1.15,2013-02-19 18:47:00,
2013-02-19 13:53:00,43.0,40.8,29.89,WSW,237,5.0,-999.0,92,0.00,,,0.22,Wunderground v.1.15,2013-02-19 18:53:00,
2013-02-19 13:58:00,43.0,40.8,29.89,WNW,290,5.0,-999.0,92,0.00,,,0.22,Wunderground v.1.15,2013-02-19 18:58:00,
2013-02-19 14:04:00,43.2,41.0,29.89,West,267,5.0,-999.0,92,0.00,,,0.22,Wunderground v.1.15,2013-02-19 19:04:00,
2013-02-19 14:10:00,43.2,41.0,29.89,West,275,5.0,-999.0,92,0.00,,,0.22,Wunderground v.1.15,2013-02-19 19:10:00,
2013-02-19 14:16:00,43.2,41.0,29.89,West,262,7.0,-999.0,92,0.00,,,0.22,Wunderground v.1.15,2013-02-19 19:16:00,
2013-02-19 14:22:00,43.3,41.1,29.88,West,263,7.0,-999.0,92,0.00,,,0.22,Wunderground v.1.15,2013-02-19 19:22:00,
2013-02-19 14:28:00,43.3,41.1,29.88,WSW,240,6.0,-999.0,92,0.00,,,0.22,Wunderground v.1.15,2013-02-19 19:28:00,
2013-02-19 14:34:00,43.3,41.1,29.88,West,260,6.0,-999.0,92,0.00,,,0.22,Wunderground v.1.15,2013-02-19 19:34:00,
2013-02-19 14:39:00,43.4,41.2,29.88,WNW,284,5.0,-999.0,92,0.00,,,0.22,Wunderground v.1.15,2013-02-19 19:39:00,
2013-02-19 14:44:00,43.6,41.4,29.88,West,261,4.0,-999.0,92,0.00,,,0.22,Wunderground v.1.15,2013-02-19 19:44:00,
2013-02-19 14:50:00,43.6,41.4,29.88,SW,220,4.0,-999.0,92,0.00,,,0.22,Wunderground v.1.15,2013-02-19 19:50:00,
2013-02-19 14:56:00,43.8,41.6,29.87,SW,225,5.0,-999.0,92,0.00,,,0.22,Wunderground v.1.15,2013-02-19 19:56:00,
2013-02-19 15:02:00,43.9,41.4,29.87,WSW,246,5.0,-999.0,91,0.00,,,0.22,Wunderground v.1.15,2013-02-19 20:02:00,
2013-02-19 15:07:00,43.9,41.4,29.87,West,273,6.0,-999.0,91,0.00,,,0.22,Wunderground v.1.15,2013-02-19 20:07:00,
2013-02-19 15:13:00,44.0,41.5,29.87,SW,232,5.0,-999.0,91,0.00,,,0.22,Wunderground v.1.15,2013-02-19 20:13:00,
2013-02-19 15:19:00,44.1,41.6,29.86,WNW,290,5.0,-999.0,91,0.00,,,0.22,Wunderground v.1.15,2013-02-19 20:19:00,
2013-02-19 15:24:00,44.1,41.6,29.86,SW,221,5.0,-999.0,91,0.00,,,0.22,Wunderground v.1.15,2013-02-19 20:24:00,
2013-02-19 15:30:00,44.3,41.6,29.86,NW,304,5.0,-999.0,90,0.00,,,0.22,Wunderground v.1.15,2013-02-19 20:30:00,
2013-02-19 15:36:00,44.5,41.7,29.86,WSW,239,5.0,-999.0,90,0.00,,,0.22,Wunderground v.1.15,2013-02-19 20:36:00,
2013-02-19 15:42:00,44.7,41.9,29.86,WNW,290,4.0,-999.0,90,0.00,,,0.22,Wunderground v.1.15,2013-02-19 20:42:00,
2013-02-19 15:47:00,44.8,41.8,29.86,WNW,302,4.0,-999.0,89,0.00,,,0.22,Wunderground v.1.15,2013-02-19 20:47:00,
2013-02-19 15:53:00,44.9,41.9,29.86,West,279,4.0,-999.0,89,0.00,,,0.22,Wunderground v.1.15,2013-02-19 20:53:00,
2013-02-19 15:59:00,45.1,42.1,29.86,West,261,4.0,-999.0,89,0.00,,,0.22,Wunderground v.1.15,2013-02-19 20:59:00,
2013-02-19 16:05:00,45.1,42.1,29.86,WNW,286,4.0,-999.0,89,0.00,,,0.22,Wunderground v.1.15,2013-02-19 21:05:00,
2013-02-19 16:10:00,45.2,42.2,29.86,WSW,241,4.0,-999.0,89,0.00,,,0.22,Wunderground v.1.15,2013-02-19 21:10:00,
2013-02-19 16:16:00,45.3,42.0,29.86,WNW,286,5.0,-999.0,88,0.00,,,0.22,Wunderground v.1.15,2013-02-19 21:16:00,
2013-02-19 16:22:00,45.4,42.1,29.87,SW,229,5.0,-999.0,88,0.00,,,0.22,Wunderground v.1.15,2013-02-19 21:22:00,
2013-02-19 16:27:00,45.5,41.9,29.87,West,260,5.0,-999.0,87,0.00,,,0.22,Wunderground v.1.15,2013-02-19 21:27:00,
2013-02-19 16:33:00,45.6,42.0,29.86,WSW,254,5.0,-999.0,87,0.00,,,0.22,Wunderground v.1.15,2013-02-19 21:33:00,
2013-02-19 16:39:00,46.3,42.3,29.87,NW,304,4.0,-999.0,86,0.00,,,0.22,Wunderground v.1.15,2013-02-19 21:39:00,
2013-02-19 16:45:00,46.9,42.6,29.86,WNW,283,4.0,-999.0,85,0.00,,,0.22,Wunderground v.1.15,2013-02-19 21:45:00,
2013-02-19 16:50:00,47.1,42.5,29.86,WSW,258,4.0,-999.0,84,0.00,,,0.22,Wunderground v.1.15,2013-02-19 21:50:00,
2013-02-19 16:56:00,47.0,42.4,29.87,WSW,252,4.0,-999.0,84,0.00,,,0.22,Wunderground v.1.15,2013-02-19 21:56:00,
2013-02-19 17:02:00,46.8,42.2,29.87,WSW,237,4.0,-999.0,84,0.00,,,0.22,Wunderground v.1.15,2013-02-19 22:02:00,
2013-02-19 17:08:00,46.5,41.9,29.87,West,260,5.0,-999.0,84,0.00,,,0.22,Wunderground v.1.15,2013-02-19 22:08:00,
2013-02-19 17:14:00,46.7,42.4,29.88,WSW,255,5.0,-999.0,85,0.00,,,0.22,Wunderground v.1.15,2013-02-19 22:14:00,
2013-02-19 17:20:00,46.7,42.1,29.88,WNW,293,3.0,-999.0,84,0.00,,,0.22,Wunderground v.1.15,2013-02-19 22:20:00,
2013-02-19 17:26:00,46.1,41.8,29.88,WSW,251,3.0,-999.0,85,0.00,,,0.22,Wunderground v.1.15,2013-02-19 22:26:00,
2013-02-19 17:31:00,45.7,41.8,29.88,West,279,2.0,-999.0,86,0.00,,,0.22,Wunderground v.1.15,2013-02-19 22:31:00,
2013-02-19 17:37:00,45.4,41.5,29.88,WSW,240,1.0,-999.0,86,0.00,,,0.22,Wunderground v.1.15,2013-02-19 22:37:00,
2013-02-19 17:43:00,45.2,41.6,29.88,WSW,238,2.0,-999.0,87,0.00,,,0.22,Wunderground v.1.15,2013-02-19 22:43:00,
2013-02-19 17:49:00,45.1,41.5,29.88,West,263,3.0,-999.0,87,0.00,,,0.22,Wunderground v.1.15,2013-02-19 22:49:00,
2013-02-19 17:54:00,45.0,41.4,29.89,West,259,3.0,-999.0,87,0.00,,,0.22,Wunderground v.1.15,2013-02-19 22:54:00,
2013-02-19 18:00:00,44.9,41.3,29.89,West,275,3.0,-999.0,87,0.00,,,0.22,Wunderground v.1.15,2013-02-19 23:00:00,
2013-02-19 18:06:00,44.7,41.1,29.90,West,270,3.0,-999.0,87,0.00,,,0.22,Wunderground v.1.15,2013-02-19 23:06:00,
2013-02-19 18:12:00,44.4,41.1,29.90,West,269,2.0,-999.0,88,0.00,,,0.22,Wunderground v.1.15,2013-02-19 23:12:00,
2013-02-19 18:18:00,44.2,40.9,29.90,WSW,240,2.0,-999.0,88,0.00,,,0.22,Wunderground v.1.15,2013-02-19 23:18:00,
2013-02-19 18:24:00,44.0,40.7,29.91,West,264,2.0,-999.0,88,0.00,,,0.22,Wunderground v.1.15,2013-02-19 23:24:00,
2013-02-19 18:30:00,43.8,40.8,29.91,West,281,2.0,-999.0,89,0.00,,,0.22,Wunderground v.1.15,2013-02-19 23:30:00,
2013-02-19 18:35:00,43.6,40.6,29.92,West,271,2.0,-999.0,89,0.00,,,0.22,Wunderground v.1.15,2013-02-19 23:35:00,
2013-02-19 18:41:00,43.4,40.4,29.92,SSW,195,1.0,-999.0,89,0.00,,,0.22,Wunderground v.1.15,2013-02-19 23:41:00,
2013-02-19 18:47:00,43.2,40.2,29.92,WNW,291,1.0,-999.0,89,0.00,,,0.22,Wunderground v.1.15,2013-02-19 23:47:00,
2013-02-19 18:53:00,43.0,40.0,29.92,SSW,211,2.0,-999.0,89,0.00,,,0.22,Wunderground v.1.15,2013-02-19 23:53:00,
2013-02-19 18:59:00,43.0,40.3,29.93,SW,223,3.0,-999.0,90,0.00,,,0.22,Wunderground v.1.15,2013-02-19 23:59:00,
2013-02-19 19:05:00,42.9,40.2,29.93,SSW,202,3.0,-999.0,90,0.00,,,0.22,Wunderground v.1.15,2013-02-20 00:05:00,
2013-02-19 19:11:00,42.9,40.2,29.93,West,269,4.0,-999.0,90,0.00,,,0.22,Wunderground v.1.15,2013-02-20 00:11:00,
2013-02-19 19:17:00,42.8,40.1,29.93,West,272,3.0,-999.0,90,0.00,,,0.22,Wunderground v.1.15,2013-02-20 00:17:00,
2013-02-19 19:22:00,42.7,40.0,29.93,WSW,252,3.0,-999.0,90,0.00,,,0.22,Wunderground v.1.15,2013-02-20 00:22:00,
2013-02-19 19:28:00,42.5,39.8,29.93,WSW,241,2.0,-999.0,90,0.00,,,0.22,Wunderground v.1.15,2013-02-20 00:28:00,
2013-02-19 19:34:00,42.5,39.8,29.93,West,259,3.0,-999.0,90,0.00,,,0.22,Wunderground v.1.15,2013-02-20 00:34:00,
2013-02-19 19:40:00,42.4,39.7,29.94,SSW,207,3.0,-999.0,90,0.00,,,0.22,Wunderground v.1.15,2013-02-20 00:40:00,
2013-02-19 19:45:00,42.2,39.5,29.94,West,263,2.0,-999.0,90,0.00,,,0.22,Wunderground v.1.15,2013-02-20 00:45:00,
2013-02-19 19:51:00,42.0,39.6,29.94,West,260,2.0,-999.0,91,0.00,,,0.22,Wunderground v.1.15,2013-02-20 00:51:00,
2013-02-19 19:57:00,42.0,39.6,29.94,SW,231,3.0,-999.0,91,0.00,,,0.22,Wunderground v.1.15,2013-02-20 00:57:00,
2013-02-19 20:03:00,42.2,39.5,29.94,West,268,4.0,-999.0,90,0.00,,,0.22,Wunderground v.1.15,2013-02-20 01:03:00,
2013-02-19 20:09:00,42.4,39.7,29.94,WSW,250,4.0,-999.0,90,0.00,,,0.22,Wunderground v.1.15,2013-02-20 01:09:00,
2013-02-19 20:15:00,42.3,39.6,29.94,WSW,250,3.0,-999.0,90,0.00,,,0.22,Wunderground v.1.15,2013-02-20 01:15:00,
2013-02-19 20:21:00,42.2,39.5,29.94,West,276,3.0,-999.0,90,0.00,,,0.22,Wunderground v.1.15,2013-02-20 01:21:00,
2013-02-19 20:26:00,42.1,39.7,29.94,WSW,247,3.0,-999.0,91,0.00,,,0.22,Wunderground v.1.15,2013-02-20 01:26:00,
2013-02-19 20:32:00,42.0,39.6,29.95,WSW,237,3.0,-999.0,91,0.00,,,0.22,Wunderground v.1.15,2013-02-20 01:32:00,
2013-02-19 20:38:00,42.0,39.6,29.95,WSW,251,3.0,-999.0,91,0.00,,,0.22,Wunderground v.1.15,2013-02-20 01:38:00,
2013-02-19 20:44:00,41.9,39.2,29.95,West,273,3.0,-999.0,90,0.00,,,0.22,Wunderground v.1.15,2013-02-20 01:44:00,
2013-02-19 20:49:00,41.9,38.9,29.95,SW,227,3.0,-999.0,89,0.00,,,0.22,Wunderground v.1.15,2013-02-20 01:49:00,
2013-02-19 20:55:00,42.3,38.1,29.95,West,260,3.0,-999.0,85,0.00,,,0.22,Wunderground v.1.15,2013-02-20 01:55:00,
2013-02-19 21:01:00,42.9,37.2,29.95,West,260,3.0,-999.0,80,0.00,,,0.22,Wunderground v.1.15,2013-02-20 02:01:00,
2013-02-19 21:07:00,43.2,36.5,29.95,West,259,4.0,-999.0,77,0.00,,,0.22,Wunderground v.1.15,2013-02-20 02:07:00,
2013-02-19 21:13:00,43.2,35.1,29.95,SW,221,4.0,-999.0,73,0.00,,,0.22,Wunderground v.1.15,2013-02-20 02:13:00,
2013-02-19 21:19:00,43.3,34.5,29.95,WSW,254,3.0,-999.0,71,0.00,,,0.22,Wunderground v.1.15,2013-02-20 02:19:00,
2013-02-19 21:25:00,43.1,34.3,29.96,West,277,3.0,-999.0,71,0.00,,,0.22,Wunderground v.1.15,2013-02-20 02:25:00,
2013-02-19 21:30:00,42.8,34.7,29.96,West,262,2.0,-999.0,73,0.00,,,0.22,Wunderground v.1.15,2013-02-20 02:30:00,
2013-02-19 21:36:00,42.2,34.8,29.96,NW,308,1.0,-999.0,75,0.00,,,0.22,Wunderground v.1.15,2013-02-20 02:36:00,
2013-02-19 21:42:00,41.8,35.1,29.96,WNW,287,2.0,-999.0,77,0.00,,,0.22,Wunderground v.1.15,2013-02-20 02:42:00,
2013-02-19 21:48:00,41.3,35.3,29.97,WNW,292,1.0,-999.0,79,0.00,,,0.22,Wunderground v.1.15,2013-02-20 02:48:00,
2013-02-19 21:53:00,40.8,35.1,29.97,NW,317,0.0,-999.0,80,0.00,,,0.22,Wunderground v.1.15,2013-02-20 02:53:00,
2013-02-19 21:59:00,40.2,33.9,29.97,NW,311,1.0,-999.0,78,0.00,,,0.22,Wunderground v.1.15,2013-02-20 02:59:00,
2013-02-19 22:05:00,40.0,32.7,29.97,NNW,327,1.0,-999.0,75,0.00,,,0.22,Wunderground v.1.15,2013-02-20 03:05:00,
2013-02-19 22:11:00,39.7,32.8,29.97,NNW,329,1.0,-999.0,76,0.00,,,0.22,Wunderground v.1.15,2013-02-20 03:11:00,
2013-02-19 22:17:00,39.4,31.1,29.97,NNW,336,1.0,-999.0,72,0.00,,,0.22,Wunderground v.1.15,2013-02-20 03:17:00,
2013-02-19 22:23:00,40.0,29.2,29.97,NW,313,2.0,-999.0,65,0.00,,,0.22,Wunderground v.1.15,2013-02-20 03:23:00,
2013-02-19 22:28:00,40.6,27.8,29.97,NNW,340,4.0,-999.0,60,0.00,,,0.22,Wunderground v.1.15,2013-02-20 03:28:00,
2013-02-19 22:33:00,41.0,26.5,29.97,WNW,295,4.0,-999.0,56,0.00,,,0.22,Wunderground v.1.15,2013-02-20 03:33:00,
2013-02-19 22:39:00,41.0,25.2,29.97,NW,319,4.0,-999.0,53,0.00,,,0.22,Wunderground v.1.15,2013-02-20 03:39:00,
2013-02-19 22:44:00,40.9,24.1,29.97,NW,313,4.0,-999.0,51,0.00,,,0.22,Wunderground v.1.15,2013-02-20 03:44:00,
2013-02-19 22:50:00,40.7,23.5,29.97,NW,320,4.0,-999.0,50,0.00,,,0.22,Wunderground v.1.15,2013-02-20 03:50:00,
2013-02-19 22:56:00,40.5,22.8,29.98,NW,308,3.0,-999.0,49,0.00,,,0.22,Wunderground v.1.15,2013-02-20 03:56:00,
2013-02-19 23:02:00,40.3,22.6,29.98,NW,323,2.0,-999.0,49,0.00,,,0.22,Wunderground v.1.15,2013-02-20 04:02:00,
2013-02-19 23:08:00,40.1,22.0,29.98,NW,319,2.0,-999.0,48,0.00,,,0.22,Wunderground v.1.15,2013-02-20 04:08:00,
2013-02-19 23:14:00,39.9,22.3,29.98,NW,310,1.0,-999.0,49,0.00,,,0.22,Wunderground v.1.15,2013-02-20 04:14:00,
2013-02-19 23:20:00,39.6,21.0,29.98,NW,313,1.0,-999.0,47,0.00,,,0.22,Wunderground v.1.15,2013-02-20 04:20:00,
2013-02-19 23:25:00,39.6,21.0,29.98,NW,313,1.0,-999.0,47,0.00,,,0.22,Wunderground v.1.15,2013-02-20 04:25:00,
2013-02-19 23:31:00,39.3,20.2,29.98,NW,315,1.0,-999.0,46,0.00,,,0.22,Wunderground v.1.15,2013-02-20 04:31:00,
2013-02-19 23:37:00,39.3,20.2,29.99,NW,321,1.0,-999.0,46,0.00,,,0.22,Wunderground v.1.15,2013-02-20 04:37:00,
2013-02-19 23:42:00,39.2,20.1,29.99,NNW,331,1.0,-999.0,46,0.00,,,0.22,Wunderground v.1.15,2013-02-20 04:42:00,
2013-02-19 23:48:00,38.9,19.9,29.99,NNW,327,2.0,-999.0,46,0.00,,,0.22,Wunderground v.1.15,2013-02-20 04:48:00,
2013-02-19 23:53:00,38.9,18.3,29.99,NW,313,2.0,-999.0,43,0.00,,,0.22,Wunderground v.1.15,2013-02-20 04:53:00,
2013-02-19 23:59:00,38.8,18.7,29.99,NNW,339,3.0,-999.0,44,0.00,,,0.22,Wunderground v.1.15,2013-02-20 04:59:00,